Weather History for KTYS - August, 2014

Change the Weather History Date:

Tuesday, August 12, 2014

  Actual Average Record
Temperature  
Mean Temperature 76 °F 78 °F  
Max Temperature 84 °F 88 °F 100 °F (1935)
Min Temperature 68 °F 68 °F 53 °F (1890)
Degree Days  
Heating Degree Days 0 0  
Month to date heating degree days 0 0  
Since 1 June heating degree days 0 4  
Since 1 July heating degree days 0 0  
Cooling Degree Days 11 13  
Month to date cooling degree days 132 156  
Year to date cooling degree days 984 1040  
Since 1 June cooling degree days 779 878  
Growing Degree Days 26 (Base 50)    
Moisture  
Dew Point 68 °F    
Average Humidity 80    
Maximum Humidity 97    
Minimum Humidity 62    
Precipitation  
Precipitation 0.08 in 0.11 in 1.67 in (1937)
Month to date precipitation 1.92 1.45  
Year to date precipitation 27.17 31.78  
Snow  
Snow 0.00 in 0.00 in - ()
Month to date snowfall 0.0 0.0  
Since 1 June snowfall 0.0 0.0  
Since 1 July snowfall 0.0 0.0  
Snow Depth 0.00 in    
Sea Level Pressure  
Sea Level Pressure 29.88 in    
Wind  
Wind Speed 7 mph (WSW)    
Max Wind Speed 17 mph    
Max Gust Speed 22 mph    
Visibility 9 miles    
Events Rain    
T = Trace of Precipitation, MM = Missing Value Source: NWS Daily Summary

Daily Weather History Graph

Daily Weather History Graph

Search for Another Location

Airport or City:

Trip Planner

Search our weather history database for the weather conditions in past years. The results will help you decide how hot, cold, wet, or windy it might be!

Date:

Astronomy

Aug. 12, 2014 Rise Set
Actual Time 6:52 AM EDT 8:29 PM EDT
Civil Twilight 6:24 AM EDT 8:56 PM EDT
Nautical Twilight 5:52 AM EDT 9:29 PM EDT
Astronomical Twilight 5:17 AM EDT 10:03 PM EDT
Moon 9:43 PM EDT (8/12) 9:02 AM EDT (8/12)
Length of Visible Light 14h 31m
Length of Day
13h 36m
Waning Gibbous, 95% of the Moon is Illuminated
Aug 12
Waning Gibbous
Aug 17
Last Quarter
Aug 25
New
Sep 2
First Quarter
Sep 8
Full

Hourly Weather History & Observations

Time (EDT) Temp. Heat Index Dew Point Humidity Pressure Visibility Wind Dir Wind Speed Gust Speed Precip Events Conditions
12:53 AM 69.1 °F - 66.9 °F 93% 29.89 in 10.0 mi South 4.6 mph - N/A   Overcast
1:53 AM 69.1 °F - 66.9 °F 93% 29.88 in 10.0 mi WNW 5.8 mph - N/A   Overcast
2:53 AM 69.1 °F - 66.9 °F 93% 29.87 in 10.0 mi West 8.1 mph - N/A   Overcast
3:53 AM 68.0 °F - 66.9 °F 96% 29.86 in 10.0 mi WSW 4.6 mph - 0.00 in Rain Light Rain
4:39 AM 68.0 °F - 66.9 °F 96% 29.89 in 10.0 mi West 4.6 mph - 0.00 in   Overcast
4:53 AM 68.0 °F - 68.0 °F 100% 29.86 in 10.0 mi SW 4.6 mph - 0.00 in   Overcast
5:53 AM 69.1 °F - 68.0 °F 96% 29.86 in 10.0 mi SW 3.5 mph - N/A   Overcast
7:20 AM 69.1 °F - 68.0 °F 96% 29.90 in 10.0 mi SSW 3.5 mph - N/A   Overcast
8:31 AM 70.0 °F - 69.1 °F 97% 29.91 in 10.0 mi SSW 3.5 mph - N/A   Overcast
8:53 AM 71.1 °F - 69.1 °F 93% 29.88 in 7.0 mi South 4.6 mph - N/A   Overcast
9:05 AM 71.1 °F - 69.1 °F 93% 29.91 in 8.0 mi SSW 5.8 mph - N/A   Overcast
9:53 AM 72.0 °F - 70.0 °F 93% 29.89 in 8.0 mi South 4.6 mph - N/A   Overcast
10:53 AM 75.0 °F - 71.1 °F 87% 29.90 in 7.0 mi WSW 8.1 mph - N/A   Mostly Cloudy
11:06 AM 75.9 °F - 70.0 °F 82% 29.93 in 10.0 mi West 8.1 mph - N/A   Mostly Cloudy
11:22 AM 75.0 °F - 70.0 °F 84% 29.93 in 10.0 mi West 8.1 mph - N/A   Mostly Cloudy
11:53 AM 77.0 °F - 71.1 °F 82% 29.89 in 10.0 mi Variable 5.8 mph - N/A   Mostly Cloudy
1:53 PM 82.0 °F 85.5 °F 69.1 °F 65% 29.86 in 10.0 mi SW 9.2 mph - N/A   Scattered Clouds
2:53 PM 73.0 °F - 68.0 °F 84% 29.87 in 3.0 mi West 11.5 mph - 0.03 in Rain Rain
2:56 PM 73.0 °F - 66.9 °F 81% 29.89 in 1.5 mi WSW 16.1 mph - 0.00 in Rain Light Rain
3:04 PM 72.0 °F - 66.9 °F 84% 29.88 in 4.0 mi SW 4.6 mph - 0.04 in Rain Light Rain
3:53 PM 81.0 °F 84.9 °F 71.1 °F 72% 29.82 in 10.0 mi Variable 5.8 mph - 0.04 in   Scattered Clouds
4:53 PM 82.9 °F 86.5 °F 69.1 °F 63% 29.80 in 10.0 mi WSW 10.4 mph - N/A   Scattered Clouds
5:53 PM 81.0 °F 83.0 °F 66.0 °F 60% 29.82 in 10.0 mi West 12.7 mph - N/A   Mostly Cloudy
6:53 PM 80.1 °F 82.3 °F 66.9 °F 64% 29.82 in 10.0 mi West 9.2 mph - N/A   Mostly Cloudy
7:53 PM 78.1 °F - 68.0 °F 71% 29.84 in 10.0 mi WSW 6.9 mph - N/A   Mostly Cloudy
8:53 PM 77.0 °F - 66.9 °F 71% 29.87 in 10.0 mi West 10.4 mph - N/A   Mostly Cloudy
9:53 PM 75.0 °F - 62.1 °F 64% 29.90 in 10.0 mi NW 6.9 mph - N/A   Mostly Cloudy
10:53 PM 73.0 °F - 62.1 °F 68% 29.92 in 10.0 mi WNW 5.8 mph - N/A   Partly Cloudy
11:53 PM 71.1 °F - 61.0 °F 70% 29.93 in 10.0 mi NNW 4.6 mph - N/A   Partly Cloudy